| time (UTC) | temp C | wind direction | speed KPH | gust KPH | rain 1hr cm | rain 24hr cm | rain mn cm | humidity % | barometer mb |
| 20260506193046 | 17 | 205 | 4.8 | 16.1 | 0.36 | 0.71 | 0.71 | 98 | 1005.8 |
| 20260506191546 | 17 | 174 | 4.8 | 14.5 | 0.53 | 0.66 | 0.66 | 97 | 1006.3 |
| 20260506190047 | 17 | 215 | 4.8 | 14.5 | 0.53 | 0.53 | 0.53 | 95 | 1006.4 |
| 20260506184552 | 17 | 225 | 6.4 | 20.9 | 0.43 | 0.43 | 0.43 | 93 | 1006.2 |
| 20260506183054 | 17 | 250 | 9.7 | 24.1 | 0.36 | 0.36 | 0.36 | 89 | 1006.7 |
| 20260506181615 | 17 | 230 | 1.6 | 8.0 | 0.13 | 0.13 | 0.13 | 80 | 1006.5 |
| 20260506180048 | 18 | 221 | 6.4 | 12.9 | 0.00 | 0.00 | 0.00 | 67 | 1006.1 |
| 20260506174545 | 19 | 189 | 6.4 | 24.1 | 0.00 | 0.00 | 0.00 | 62 | 1005.8 |
| 20260506173058 | 20 | 202 | 9.7 | 24.1 | 0.00 | 0.00 | 0.00 | 61 | 1006.0 |
| 20260506171544 | 20 | 215 | 12.9 | 33.8 | 0.00 | 0.00 | 0.00 | 58 | 1006.1 |
| 20260506170049 | 20 | 237 | 8.0 | 24.1 | 0.00 | 0.00 | 0.00 | 59 | 1006.2 |
| 20260506164548 | 20 | 211 | 14.5 | 29.0 | 0.00 | 0.00 | 0.00 | 60 | 1006.6 |
| 20260506163047 | 20 | 215 | 11.3 | 24.1 | 0.00 | 0.00 | 0.00 | 61 | 1006.9 |
| 20260506161548 | 20 | 217 | 9.7 | 27.4 | 0.00 | 0.00 | 0.00 | 62 | 1007.2 |
| 20260506160052 | 19 | 217 | 12.9 | 24.1 | 0.00 | 0.00 | 0.00 | 63 | 1007.5 |
| 20260506154552 | 20 | 188 | 11.3 | 24.1 | 0.00 | 0.00 | 0.00 | 63 | 1007.9 |
| 20260506153104 | 18 | 240 | 11.3 | 32.2 | 0.00 | 0.00 | 0.00 | 67 | 1008.1 |
| 20260506151544 | 18 | 221 | 6.4 | 29.0 | 0.00 | 0.00 | 0.00 | 66 | 1007.7 |
| 20260506150059 | 18 | 229 | 12.9 | 24.1 | 0.00 | 0.00 | 0.00 | 66 | 1008.0 |
| 20260506144555 | 18 | 217 | 11.3 | 27.4 | 0.00 | 0.00 | 0.00 | 67 | 1007.8 |
| 20260506143045 | 18 | 226 | 14.5 | 27.4 | 0.00 | 0.00 | 0.00 | 68 | 1007.9 |
| 20260506141543 | 18 | 206 | 11.3 | 19.3 | 0.00 | 0.00 | 0.00 | 69 | 1007.7 |
| 20260506140041 | 18 | 210 | 6.4 | 16.1 | 0.00 | 0.00 | 0.00 | 71 | 1007.9 |
| 20260506134540 | 17 | 227 | 9.7 | 17.7 | 0.00 | 0.00 | 0.00 | 72 | 1008.1 |
| 20260506133042 | 17 | 228 | 8.0 | 17.7 | 0.00 | 0.00 | 0.00 | 72 | 1008.2 |
| 20260506131553 | 17 | 229 | 8.0 | 20.9 | 0.00 | 0.00 | 0.00 | 72 | 1008.1 |
| 20260506130047 | 17 | 215 | 8.0 | 17.7 | 0.00 | 0.00 | 0.00 | 73 | 1008.2 |
| 20260506124546 | 16 | 271 | 8.0 | 22.5 | 0.00 | 0.00 | 0.00 | 74 | 1008.1 |
| 20260506123041 | 16 | 213 | 8.0 | 24.1 | 0.00 | 0.00 | 0.00 | 73 | 1008.3 |
| 20260506121542 | 16 | 209 | 8.0 | 20.9 | 0.00 | 0.00 | 0.00 | 74 | 1008.1 |
| 20260506120048 | 16 | 228 | 9.7 | 19.3 | 0.00 | 0.00 | 0.00 | 75 | 1008.6 |
| 20260506114547 | 16 | 200 | 9.7 | 20.9 | 0.00 | 0.00 | 0.00 | 75 | 1008.7 |
| 20260506113046 | 15 | 222 | 8.0 | 17.7 | 0.00 | 0.00 | 0.00 | 76 | 1008.9 |
| 20260506111545 | 15 | 227 | 8.0 | 17.7 | 0.00 | 0.00 | 0.00 | 76 | 1009.0 |
| 20260506110042 | 15 | 216 | 9.7 | 20.9 | 0.00 | 0.00 | 0.00 | 76 | 1008.8 |
| 20260506104541 | 15 | 247 | 8.0 | 14.5 | 0.00 | 0.00 | 0.00 | 76 | 1008.9 |
| 20260506103053 | 15 | 232 | 8.0 | 16.1 | 0.00 | 0.00 | 0.00 | 76 | 1009.0 |
| 20260506101547 | 15 | 221 | 8.0 | 16.1 | 0.00 | 0.00 | 0.00 | 76 | 1008.6 |
| 20260506100045 | 15 | 197 | 6.4 | 17.7 | 0.00 | 0.00 | 0.00 | 74 | 1008.7 |
| 20260506094545 | 15 | 224 | 8.0 | 14.5 | 0.00 | 0.00 | 0.00 | 74 | 1008.7 |
| 20260506093041 | 14 | 189 | 6.4 | 11.3 | 0.00 | 0.00 | 0.00 | 73 | 1008.6 |
| 20260506091550 | 14 | 225 | 6.4 | 14.5 | 0.00 | 0.00 | 0.00 | 73 | 1008.6 |
| 20260506090056 | 15 | 218 | 6.4 | 16.1 | 0.00 | 0.00 | 0.00 | 71 | 1008.4 |
| 20260506084551 | 15 | 229 | 8.0 | 17.7 | 0.00 | 0.00 | 0.00 | 70 | 1008.6 |
| 20260506083047 | 15 | 219 | 4.8 | 17.7 | 0.00 | 0.00 | 0.00 | 70 | 1008.3 |
| 20260506081546 | 15 | 207 | 6.4 | 12.9 | 0.00 | 0.00 | 0.00 | 69 | 1008.2 |
| 20260506073048 | 15 | 269 | 3.2 | 9.7 | 0.00 | 0.00 | 0.00 | 67 | 1008.4 |
| 20260506071549 | 15 | 215 | 6.4 | 11.3 | 0.00 | 0.00 | 0.00 | 66 | 1008.2 |
| 20260506061544 | 16 | 176 | 4.8 | 14.5 | 0.00 | 0.00 | 0.00 | 64 | 1007.9 |
| 20260506044552 | 17 | 153 | 9.7 | 17.7 | 0.00 | 0.00 | 0.00 | 62 | 1008.2 |
| 20260506043047 | 17 | 192 | 9.7 | 19.3 | 0.00 | 0.00 | 0.00 | 61 | 1008.2 |
| 20260506041547 | 17 | 198 | 6.4 | 16.1 | 0.00 | 0.00 | 0.00 | 62 | 1008.1 |
| 20260506040047 | 17 | 222 | 6.4 | 14.5 | 0.00 | 0.00 | 0.00 | 62 | 1008.1 |
| 20260506034558 | 17 | 212 | 6.4 | 12.9 | 0.00 | 0.00 | 0.00 | 65 | 1008.1 |
| 20260506033049 | 17 | 202 | 1.6 | 6.4 | 0.00 | 0.00 | 0.00 | 67 | 1008.3 |
| 20260506031547 | 17 | 178 | 1.6 | 9.7 | 0.00 | 0.00 | 0.00 | 67 | 1008.2 |
| 20260506030046 | 17 | 221 | 3.2 | 8.0 | 0.00 | 0.00 | 0.00 | 66 | 1008.2 |
| 20260506024605 | 17 | 173 | 4.8 | 9.7 | 0.00 | 0.00 | 0.00 | 65 | 1008.0 |
| 20260506023044 | 17 | 207 | 1.6 | 8.0 | 0.00 | 0.00 | 0.00 | 64 | 1008.1 |
| 20260506021544 | 18 | 225 | 1.6 | 8.0 | 0.00 | 0.00 | 0.00 | 63 | 1008.5 |
| 20260506020048 | 18 | 211 | 1.6 | 8.0 | 0.00 | 0.00 | 0.00 | 62 | 1008.4 |
| 20260506014550 | 18 | 236 | 1.6 | 4.8 | 0.00 | 0.00 | 0.00 | 61 | 1008.6 |
| 20260506013102 | 18 | 279 | 6.4 | 12.9 | 0.00 | 0.00 | 0.00 | 61 | 1008.4 |
| 20260506011602 | 18 | 246 | 3.2 | 11.3 | 0.00 | 0.00 | 0.00 | 60 | 1008.4 |
| 20260506010047 | 18 | 300 | 3.2 | 6.4 | 0.00 | 0.00 | 0.00 | 60 | 1008.2 |
| 20260506004541 | 19 | 238 | 4.8 | 11.3 | 0.00 | 0.00 | 0.00 | 58 | 1007.9 |
| 20260506003041 | 19 | 232 | 3.2 | 9.7 | 0.00 | 0.00 | 0.00 | 57 | 1007.8 |
| 20260506001548 | 19 | 248 | 3.2 | 9.7 | 0.00 | 0.00 | 0.00 | 58 | 1007.4 |
| 20260506000050 | 18 | 300 | 1.6 | 12.9 | 0.00 | 0.00 | 0.00 | 60 | 1007.2 |
| 20260505234546 | 19 | 180 | 1.6 | 4.8 | 0.00 | 0.00 | 0.00 | 59 | 1006.7 |
| 20260505233045 | 19 | 0 | 1.6 | 6.4 | 0.00 | 0.00 | 0.00 | 57 | 1006.1 |
| 20260505231543 | 19 | 158 | 0.0 | 8.0 | 0.00 | 0.00 | 0.00 | 58 | 1006.1 |
| 20260505230052 | 20 | 307 | 9.7 | 27.4 | 0.00 | 0.00 | 0.00 | 56 | 1006.0 |
| 20260505224540 | 21 | 324 | 19.3 | 35.4 | 0.00 | 0.00 | 0.00 | 48 | 1005.8 |
| 20260505223056 | 22 | 227 | 8.0 | 22.5 | 0.00 | 0.00 | 0.00 | 42 | 1004.5 |
| 20260505221547 | 23 | 200 | 8.0 | 20.9 | 0.00 | 0.00 | 0.00 | 41 | 1004.1 |
| 20260505220048 | 23 | 146 | 8.0 | 22.5 | 0.00 | 0.00 | 0.00 | 40 | 1003.8 |
| 20260505214544 | 23 | 182 | 11.3 | 30.6 | 0.00 | 0.00 | 0.00 | 39 | 1003.8 |
| 20260505213052 | 24 | 190 | 8.0 | 30.6 | 0.00 | 0.00 | 0.00 | 37 | 1003.7 |
| 20260505211540 | 23 | 170 | 11.3 | 25.7 | 0.00 | 0.00 | 0.00 | 39 | 1003.5 |
| 20260505210047 | 23 | 211 | 8.0 | 25.7 | 0.00 | 0.00 | 0.00 | 40 | 1003.5 |
| 20260505204545 | 23 | 206 | 12.9 | 37.0 | 0.00 | 0.00 | 0.00 | 40 | 1003.4 |
| 20260505203051 | 24 | 165 | 11.3 | 25.7 | 0.00 | 0.00 | 0.00 | 39 | 1003.4 |
| 20260505201544 | 25 | 177 | 12.9 | 37.0 | 0.00 | 0.00 | 0.00 | 36 | 1003.6 |
| 20260505200047 | 25 | 175 | 12.9 | 29.0 | 0.00 | 0.00 | 0.00 | 36 | 1003.7 |
| 20260505194600 | 26 | 209 | 12.9 | 35.4 | 0.00 | 0.00 | 0.00 | 30 | 1003.7 |